Content
SEND FEEDBACK

Daily
Averages
Monthly
Summary
Mauritania

NOUADHIBOU, MAURITANIA


Home > Africa > Mauritania
Elevation: 10 feet     Latitude: 20 56N     Longitude: 017 02W

WEATHER
 
SELECT A DAY
Number of Records: 120,292;   Date Range: 7/1/96 - 9/29/14
 
SHARE

PRINT THIS DATA

[ ← Previous Day ]
WEATHER ALMANAC - JULY 18, 2013
[ Next Day → ]
[ °C ]   °F
Weather ElementAverageHighLow
Temperature73.3 °F77 °F (11:00 am)69.8 °F (6:00 am)
Dewpoint65.8 °F67 °F (6:00 am)64.4 °F (2:00 am)
Humidity76.4 %88 % (6:00 am)65 % (12:00 pm)
Barometer29.92 in29.99 in (9:00 am)29.83 in (7:00 pm)
Wind Speed18.6 mph29.9 mph (8:00 pm)
Wind Gust43.7 mph (8:00 pm)
Weather ElementAverage
Visibility3.1 mi
Wind DirectionNNW (327.9 °)

Weather ElementTotal
Precipitation---
Cooling Degree Days8.4 (Base 65)
Growing Degree Days23.4 (Base 50)
Averaged from 29 records on July 18, 2013
WEATHER CONDITIONS BREAKOUT
WIND DIRECTION BREAKOUT
WEATHER BY HOUR - JULY 18, 2013
[ °C ]   °F
Local TimeTemperatureDewpointHumidityBarometerVisibilityWind DirectionWind SpeedGust SpeedPrecipitationEventsConditions
1:00 AM75.2 °F66.2 °F73 %29.98 in4.3 miNNW (340°)17.3 mph28.8 mph
2:00 AM75.2 °F64.4 °F69 %29.95 in4.3 miNNW (340°)15.0 mph
3:00 AM72.0 °F66.0 °F77 %29.94 in4.0 miNNW (340°)16.1 mphPartly Cloudy
3:00 AM73.4 °F66.2 °F78 %29.92 in4.3 miNNW (330°)16.1 mph
4:00 AM71.6 °F66.2 °F83 %29.92 in4.3 miNNW (340°)18.4 mph
5:00 AM71.6 °F66.2 °F83 %29.95 in4.3 miNNW (340°)15.0 mph
6:00 AM69.8 °F66.2 °F88 %29.95 in4.3 miNNW (330°)16.1 mph
6:00 AM70.0 °F67.0 °F88 %29.96 in4.0 miNNW (340°)13.8 mph
7:00 AM69.8 °F66.2 °F88 %29.95 in4.3 miNNW (330°)16.1 mph
8:00 AM69.8 °F66.2 °F88 %29.95 in4.3 miNNW (330°)18.4 mph
9:00 AM74.0 °F67.0 °F74 %29.99 in4.0 miNNW (330°)11.5 mph
9:00 AM71.6 °F66.2 °F83 %29.98 in4.3 miNNW (340°)15.0 mph
10:00 AM75.2 °F66.2 °F73 %29.98 in4.3 miNNW (340°)12.7 mph
11:00 AM77.0 °F66.2 °F69 %29.98 in4.3 miNW (320°)11.5 mph
12:00 PM75.2 °F66.2 °F73 %29.98 in4.3 miWNW (300°)17.3 mph
12:00 PM76.0 °F67.0 °F65 %29.98 in4.0 miCalm (310°)Partly Cloudy
1:00 PM77.0 °F66.2 °F69 %29.95 in4.3 miWNW (300°)17.3 mph
2:00 PM77.0 °F64.4 °F65 %29.92 in2.5 miNW (310°)20.7 mphLow Drifting Sand
3:00 PM75.0 °F66.0 °F66 %29.91 in2.0 miNW (320°)24.2 mphBlowing Sand
3:00 PM75.2 °F66.2 °F73 %29.89 in1.5 miNW (310°)23.0 mphLow Drifting Sand
4:00 PM73.4 °F64.4 °F73 %29.86 in1.5 miNW (310°)23.0 mph34.5 mphLow Drifting Sand
5:00 PM75.2 °F66.2 °F73 %29.86 in1.5 miNW (320°)25.3 mphLow Drifting Sand
6:00 PM73.4 °F64.4 °F73 %29.86 in1.5 miNW (320°)25.3 mphLow Drifting Sand
7:00 PM73.4 °F66.2 °F78 %29.83 in1.5 miNNW (330°)26.5 mph38.0 mphLow Drifting Sand
8:00 PM71.6 °F66.2 °F83 %29.83 in1.5 miNNW (330°)29.9 mph43.7 mphLow Drifting Sand
9:00 PM72.0 °F66.0 °F77 %29.88 in1.0 miNNW (340°)23.0 mphBlowing Sand
9:00 PM71.6 °F64.4 °F78 %29.86 in1.5 miNNW (340°)25.3 mph36.8 mphLow Drifting Sand
10:00 PM71.6 °F64.4 °F78 %29.86 in1.5 miNNW (340°)25.3 mphLow Drifting Sand
11:00 PM71.6 °F64.4 °F78 %29.86 in1.5 miNNW (340°)19.6 mph32.2 mphLow Drifting Sand
Hourly data recorded from GQPP, located miles away from Nouadhibou, Mauritania







STORIES FROM OUR PARTNERS